Location: Fleurance
(43.8482°N, 0.6630°E)
Time: 19:46:39
(UTC+00:00)

Daily predictions for brighter satellites

Satellite Brightness Start Highest point End
(mag) Time Altitude Azimuth Time Altitude Azimuth Time Altitude Azimuth
CZ-2C R/B 4.3 19:52:30 10° S 19:57:41 47° W 20:03:11 10° NNW
STARLINK-1092 4.2 19:54:47 10° NW 19:58:51 53° NNE 20:02:54 10° ESE
ASTEX 1 3.4 19:54:06 10° S 19:58:59 84° E 20:03:56 10° N
Okean 1-7 3.2 19:55:03 10° S 19:59:12 51° E 20:03:20 10° NNE
Cosmos 1515 4.4 19:57:18 10° SSE 20:00:47 35° E 20:04:17 10° NNE
STARLINK-1205 3.6 19:56:46 10° SW 20:00:54 85° SSE 20:05:04 10° NE
Okean 1 3.3 19:58:49 10° S 20:02:50 67° E 20:06:52 10° NNE
STARLINK-1080 4.1 19:59:49 10° NW 20:03:54 56° NNE 20:07:59 10° ESE
Meteor 1-19 Rocket 4.5 19:59:47 10° SSE 20:05:11 52° E 20:10:45 10° NNE
STARLINK-1218 3.7 20:01:45 10° SW 20:05:53 88° NW 20:10:02 10° NE
MOS 1 Rocket 3.2 20:03:43 10° N 20:08:11 82° WNW 20:12:28 10° SSW
STARLINK-1090 4.0 20:04:45 10° NW 20:08:53 61° NNE 20:12:59 10° ESE
STARLINK-1254 3.7 20:06:43 10° WSW 20:10:51 82° NW 20:15:01 10° NE
DMSP B5D2-2 4.1 20:05:44 10° NNE 20:11:04 84° ESE 20:16:20 10° SSW
Cosmos 2056 Rocket 3.5 20:06:06 10° S 20:11:06 60° ESE 20:16:09 10° NNE
Cosmos 389 Rocket 2.8 20:09:53 10° SSW 20:13:18 69° W 20:16:49 10° N
STARLINK-1089 3.9 20:09:43 10° NW 20:13:52 65° NNE 20:17:58 10° ESE
NOSS 2-3 (E) 3.6 20:10:22 10° SW 20:14:35 87° ESE 20:19:32 10° NE
Cosmos 1544 3.4 20:11:44 10° N 20:15:16 47° ENE 20:18:46 10° SSE
STARLINK-1231 3.8 20:11:42 10° WSW 20:15:50 76° NNW 20:19:59 10° NE
STARLINK-1246 4.5 20:14:47 10° SSW 20:18:21 28° SE 20:21:56 10° ENE
STARLINK-1087 4.4 20:17:22 10° WSW 20:18:25 13° SW 20:19:27 10° SSW
Cosmos 1356 3.4 20:15:05 10° N 20:18:33 79° E 20:21:59 10° SSE
STARLINK-1107 3.8 20:14:41 10° NW 20:18:49 70° NNE 20:22:53 10° ESE
Meteor 1-18 Rocket 4.2 20:13:57 10° S 20:19:30 81° E 20:25:10 10° NNE
CZ-2C R/B 3.9 20:15:25 10° N 20:19:53 77° WNW 20:24:24 10° SSW
STARLINK-1232 4.0 20:16:43 10° WSW 20:20:50 71° NNW 20:24:59 10° NE
STARLINK-1224 4.3 20:19:37 10° SSW 20:23:18 31° SE 20:26:58 10° ENE
STARLINK-1066 3.7 20:19:41 10° NW 20:23:51 75° NNE 20:27:42 12° ESE
STARLINK-1208 4.1 20:21:42 10° WSW 20:25:49 66° NNW 20:29:57 10° NE
Cosmos 2221 Rocket 4.3 20:21:52 10° SSE 20:25:59 36° E 20:30:08 10° NNE
COSMOS 2406 3.3 20:21:50 10° NNW 20:27:39 75° ENE 20:33:08 11° SSE
STARLINK-1225 4.2 20:24:29 10° SSW 20:28:14 34° SE 20:32:00 10° ENE
STARLINK-1081 3.6 20:24:38 10° NW 20:28:48 81° NNE 20:32:27 13° ESE
USA 245 4.0 20:27:16 13° SE 20:29:46 27° ENE 20:32:17 10° NNE
Cosmos 909 Rocket 4.4 20:22:34 10° NW 20:30:27 80° WSW 20:36:50 11° SSE
Meteor 2-4 Rocket 3.8 20:25:29 10° S 20:30:40 51° E 20:35:51 10° NNE
STARLINK-1271 4.2 20:26:42 10° WSW 20:30:48 61° NNW 20:34:55 10° NE
STARLINK-1230 4.1 20:29:22 10° SSW 20:33:11 37° SE 20:37:01 10° ENE
ATLAS 3B CENTAUR R/B 4.3 20:24:43 10° SW 20:33:37 20° S 20:38:13 13° SE
STARLINK-1070 3.6 20:29:36 10° NW 20:33:46 87° NE 20:37:14 14° SE
Cosmos 1782 Rocket 3.7 20:29:42 10° N 20:34:11 80° W 20:38:39 10° S
NOSS 2-3 (D) 4.0 20:30:29 10° SW 20:34:42 69° NW 20:39:41 10° NNE
STARLINK-1154 4.4 20:31:41 10° WSW 20:35:46 57° NNW 20:39:52 10° NE
Resurs 01 Rocket 1.8 20:32:37 10° S 20:37:04 79° W 20:41:33 10° NNW
STARLINK-1243 4.0 20:34:15 10° SSW 20:38:09 41° SE 20:42:02 10° ENE
STARLINK-1069 3.6 20:34:36 10° NW 20:38:46 86° SW 20:42:01 16° SE
Sich 1 Rocket 3.6 20:34:48 10° N 20:39:25 76° E 20:43:48 11° SSE
NOSS 3 (A) 4.2 20:37:12 10° SSW 20:39:51 75° ESE 20:42:41 10° NE
STARLINK-1197 4.5 20:36:42 10° WSW 20:40:45 53° NNW 20:44:49 10° NE
Cosmos 407 Rocket 4.1 20:36:28 10° NNW 20:41:42 57° WSW 20:46:55 10° S
Cosmos 1452 Rocket 4.0 20:36:58 10° S 20:41:52 40° ESE 20:46:47 10° NE
STARLINK-1236 3.9 20:39:10 10° SSW 20:43:07 45° SE 20:47:05 10° ENE
STARLINK-1085 3.6 20:39:36 10° WNW 20:43:45 80° SW 20:46:49 17° SE
Abrixas rocket 3.7 20:42:31 10° WNW 20:45:13 31° N 20:47:55 10° ENE
Cosmos 1420 Rocket 4.0 20:40:23 10° S 20:45:31 63° ESE 20:50:39 10° NNE
GPS 2-04 Rocket1 4.1 20:44:43 10° SSW 20:47:02 16° SSE 20:47:11 16° SSE
ERBS 2.2 20:43:55 10° SW 20:47:13 90° NW 20:50:32 10° NE
STARLINK-1086 3.6 20:44:34 10° WNW 20:48:43 74° SW 20:51:36 19° SE
Okean 2 Rocket 3.2 20:47:11 10° N 20:51:35 62° E 20:54:51 17° SSE
Cosmos 2279 Rocket 4.2 20:45:54 10° N 20:52:05 59° E 20:57:04 16° SSE
STARLINK-1269 3.7 20:48:58 10° SW 20:53:00 54° SE 20:57:03 10° ENE
STARLINK-1095 3.7 20:49:34 10° WNW 20:53:41 67° SW 20:56:23 21° SE
NOSS 3-1 (A) 4.4 20:49:39 10° WSW 20:55:02 50° NW 21:01:17 10° NNE
STARLINK-1200 3.6 20:53:56 10° SW 20:57:59 59° SE 21:02:04 10° ENE
Cosmos 2082 Rocket 2.6 20:52:23 10° NNW 20:57:59 52° ENE 21:01:58 19° SE
CZ-2C R/B 4.0 20:53:18 10° N 20:58:33 43° WNW 21:03:49 10° SW
STARLINK-1077 3.8 20:54:32 10° WNW 20:58:38 62° SW 21:01:09 22° SE
SL-4 R/B 1.9 20:56:43 10° NNW 20:59:45 44° NE 21:01:02 26° ESE
Cosmos 1833 Rocket 2.7 20:54:30 10° NNW 21:00:09 85° ENE 21:04:19 19° SSE
Okean 1 Rocket 4.4 20:57:29 10° NNE 21:01:14 26° ENE 21:03:19 18° ESE
STARLINK-1192 3.5 20:58:53 10° SW 21:02:58 64° SE 21:07:05 10° ENE
STARLINK-1075 3.9 20:59:33 10° WNW 21:03:37 56° SW 21:05:57 23° SSE
GENESIS II 4.5 21:00:56 10° NW 21:04:55 63° WSW 21:07:15 23° SSE
Cosmos 2151 Rocket 3.7 21:00:50 10° N 21:05:21 61° E 21:08:09 22° SSE
STARLINK-1108 4.5 21:01:51 10° NW 21:05:51 45° NNE 21:09:00 15° E
Cosmos 1140 Rocket 4.4 21:02:11 10° NNW 21:07:08 45° WSW 21:11:49 11° S
IGS 5A 3.4 21:04:41 20° SSE 21:07:29 84° ENE 21:11:40 10° N
STARLINK-1244 3.5 21:03:49 10° SW 21:07:56 70° SE 21:12:04 10° ENE
STARLINK-1093 4.0 21:04:33 10° WNW 21:08:35 51° SW 21:10:43 25° SSE
Cosmos 1943 Rocket 3.8 21:09:27 14° ESE 21:10:04 15° E 21:13:01 10° ENE
Cosmos 1634 Rocket 4.4 21:04:23 10° NNW 21:10:38 64° W 21:16:52 10° S
Cosmos 2369 Rocket 4.2 21:10:40 10° E 21:10:49 10° E 21:11:37 10° E
STARLINK-1071 4.3 21:06:49 10° NW 21:10:51 48° NNE 21:13:47 17° E
CZ-4B DEB 4.5 21:09:47 29° SE 21:11:14 60° ENE 21:14:32 10° N
Terra 2.8 21:09:16 20° ESE 21:11:49 34° ENE 21:16:06 10° N
STARLINK-1138 3.5 21:08:46 10° SW 21:12:53 76° SE 21:17:02 10° ENE
SPOT 1/Viking Rocket 3.5 21:09:30 20° SSE 21:13:08 79° ENE 21:18:18 10° NNW
STARLINK-1074 4.1 21:09:33 10° WNW 21:13:33 47° SW 21:15:30 26° SSE
ISS -3.1 21:10:24 10° NW 21:13:42 49° NNE 21:15:34 22° E
Okean 3 3.9 21:09:58 10° SSW 21:14:13 63° W 21:18:31 10° N
STARLINK-1110 4.3 21:10:50 10° NW 21:14:53 51° NNE 21:17:39 19° E
Cosmos 1741 Rocket 4.3 21:11:25 10° NNW 21:16:34 55° ENE 21:19:31 25° SE
Crew Dragon 1.3 21:15:23 10° NW 21:17:27 35° NNE 21:17:56 30° ENE
STARLINK-1143 3.5 21:13:43 10° SW 21:17:51 83° SE 21:22:01 10° ENE
SeaSat 1 4.0 21:15:07 10° ENE 21:18:10 16° ESE 21:18:10 16° ESE
CARTOSAT-1 3.7 21:18:14 27° SE 21:20:26 61° ENE 21:24:43 10° N
Cosmos 1066 Rocket 4.4 21:17:31 23° SSE 21:20:36 47° E 21:25:44 10° NNE
STARLINK-1124 4.1 21:16:44 10° NW 21:20:49 55° NNE 21:23:19 22° E
Cosmos 1461 3.3 21:19:52 27° SSE 21:21:30 40° ESE 21:25:31 10° NE
STARLINK-1241 3.5 21:18:42 10° SW 21:22:51 89° SE 21:27:01 10° NE
Cosmos 371 Rocket 3.3 21:18:01 10° SSW 21:22:52 86° WNW 21:27:46 10° NNE
ERS-1 Rocket 3.0 21:20:07 25° SSE 21:23:06 72° ENE 21:28:08 10° N
STARLINK-1088 4.4 21:19:35 10° WNW 21:23:27 39° SW 21:25:04 27° S
STARLINK-1203 3.6 21:20:33 10° SW 21:24:45 87° NW 21:28:58 10° NE
STARLINK-1122 4.0 21:21:43 10° NW 21:25:50 59° NNE 21:28:06 24° ESE
Lacrosse 5 1.8 21:21:00 10° NW 21:26:06 83° NE 21:28:52 27° SE
STARLINK-1239 3.6 21:23:40 10° WSW 21:27:48 84° NW 21:31:58 10° NE
Cosmos 1850 Rocket 4.1 21:23:24 10° NNW 21:28:46 74° ENE 21:31:37 28° SSE
Cosmos 2278 Rocket 3.1 21:24:51 10° SW 21:30:21 50° WNW 21:35:53 10° NNE
STARLINK-1126 3.9 21:26:30 10° NW 21:30:37 63° NNE 21:32:43 27° ESE
STARLINK-1240 3.7 21:28:40 10° WSW 21:32:49 78° NNW 21:36:59 10° NE
Cosmos 1110 Rocket 4.3 21:31:28 28° SSE 21:33:44 45° ESE 21:38:39 10° NNE
STARLINK-1082 3.8 21:31:39 10° NW 21:35:47 68° NNE 21:37:39 31° ESE
Spot 2 Rocket 4.3 21:33:22 16° SSW 21:37:06 44° W 21:41:57 10° NNW
STARLINK-1216 3.8 21:33:39 10° WSW 21:37:47 73° NNW 21:41:56 10° NE
Meteor 1-15 Rocket 4.3 21:32:10 10° N 21:38:07 75° E 21:41:20 28° SSE
Cosmos 1300 Rocket 4.4 21:35:18 10° NNW 21:39:34 45° W 21:42:24 19° SSW
STARLINK-1100 3.7 21:36:39 10° NW 21:40:48 73° NNE 21:42:29 34° ESE
STARLINK-1237 3.9 21:38:38 10° WSW 21:42:46 68° NNW 21:46:54 10° NE
Cosmos 1437 Rocket 3.1 21:43:31 23° SSW 21:45:40 60° WNW 21:49:27 10° N
STARLINK-1083 3.6 21:41:36 10° NW 21:45:46 79° NNE 21:47:14 39° ESE
STARLINK-1202 4.1 21:43:40 10° WSW 21:47:46 63° NNW 21:51:53 10° NE
STARLINK-1125 3.5 21:46:35 10° NW 21:50:44 85° NE 21:52:01 43° ESE
Cosmos 1331 Rocket 4.0 21:52:17 33° S 21:54:27 62° ESE 21:59:34 10° NNE
Cosmos 1674 Rocket 4.1 21:52:50 22° SSW 21:55:31 56° W 21:59:52 10° N
STARLINK-1109 3.5 21:51:34 10° NW 21:55:44 89° SW 21:56:48 49° SE
Cosmos 972 Rocket 4.4 21:51:34 21° SSW 21:55:52 85° ESE 22:02:40 10° NNE
Aureole 2 Rocket 2.1 21:56:36 72° SW 21:56:51 81° WNW 21:59:56 10° NNE
STARLINK-1246 4.3 21:53:41 10° WSW 21:57:45 55° NNW 22:01:50 10° NE
Okean 2 3.9 21:57:29 40° ESE 21:57:53 41° E 22:01:48 10° NNE
STARLINK-1091 3.5 21:56:31 10° WNW 22:00:41 82° SW 22:01:34 54° SE
SPOT 5 3.3 21:58:24 30° S 22:00:54 61° W 22:06:11 10° NNW
Cosmos 1378 Rocket 3.8 21:58:46 28° SSW 22:00:59 66° W 22:05:22 10° N
BREEZE-M DEB (TANK) 3.8 21:48:57 10° WNW 22:01:55 90° NNE 22:04:24 31° ESE
SL-8 R/B 4.3 21:57:31 10° WNW 22:02:15 55° NNE 22:06:01 16° E
STARLINK-1224 4.5 21:58:41 10° WSW 22:02:44 51° NNW 22:06:47 10° NE
Cosmos 304 Rocket 3.9 22:01:09 22° SSW 22:04:11 73° WNW 22:09:00 10° NNE
STARLINK-1072 3.5 22:01:32 10° WNW 22:05:41 76° SW 22:06:22 59° SSE
Cosmos 1766 3.2 22:05:44 10° N 22:09:43 70° E 22:10:13 60° SE
STARLINK-1096 3.5 22:06:31 10° WNW 22:10:38 70° SW 22:11:09 61° S
Cosmos 1733 3.4 22:07:08 10° N 22:10:53 53° E 22:11:07 52° E
BREEZE-M DEB (TANK) 4.0 21:54:50 10° WSW 22:12:42 83° NNW 22:16:57 10° ENE
Cosmos 2026 Rocket 4.1 22:11:35 37° SSE 22:13:58 58° E 22:20:10 10° NNE
Cosmos 1975 Rocket 3.1 22:14:27 53° SE 22:15:08 60° E 22:19:31 10° NNE
STARLINK-1079 3.6 22:11:31 10° WNW 22:15:38 64° SW 22:15:56 61° SSW
EXPRESS MD2 4.1 22:16:39 10° WSW 22:20:18 73° NNW 22:27:47 10° ENE
STARLINK-1116 3.7 22:16:29 10° WNW 22:20:35 58° SW 22:20:42 58° SSW
Abrixas rocket 2.9 22:18:13 10° WNW 22:20:46 46° N 22:20:46 46° N
SL-27 R/B 3.9 22:19:31 10° N 22:22:42 28° ENE 22:22:47 28° ENE
USA 215 3.9 22:18:24 14° E 22:24:00 52° NNE 22:30:18 10° NW
STARLINK-1101 4.4 22:23:47 10° NW 22:27:49 47° NNE 22:29:17 32° E
Cosmos 1953 4.4 22:26:37 10° NNE 22:29:13 16° ENE 22:29:31 16° ENE
Cosmos 2297 4.3 22:25:02 13° SW 22:29:58 56° WNW 22:35:36 10° NNE
STARLINK-1094 4.0 22:26:31 10° WNW 22:30:17 48° SW 22:30:17 48° SW
NOSS 2-2 (D) 3.3 22:30:16 58° WSW 22:30:49 71° NW 22:34:44 10° NNE
Thor Agena Rocket 3.6 22:26:58 10° NNE 22:32:16 67° ESE 22:33:31 50° SSE
STARLINK-1102 4.3 22:28:46 10° NW 22:32:49 50° NNE 22:34:04 36° ENE
Cosmos 1378 4.1 22:34:05 35° WSW 22:34:50 40° WNW 22:38:23 10° N
STARLINK-1117 4.2 22:31:31 10° WNW 22:35:03 43° WSW 22:35:03 43° WSW
STARLINK-1111 4.2 22:33:44 10° NW 22:37:47 54° NNE 22:38:50 41° ENE
Cosmos 292 Rocket 4.2 22:37:50 45° ESE 22:37:55 45° ESE 22:42:33 10° NNE
Meteor 1-22 Rocket 4.3 22:32:25 10° NNW 22:38:23 75° W 22:40:16 44° S
COSMOS 2455 4.4 22:39:19 19° E 22:39:19 19° E 22:43:03 10° ENE
BREEZE-M DEB (TANK) 4.3 22:26:09 10° WNW 22:39:40 71° NNE 22:42:01 28° E
STARLINK-1078 4.4 22:36:32 10° WNW 22:39:51 38° WSW 22:39:51 38° WSW
Cosmos 1758 4.1 22:36:42 10° N 22:40:33 40° ENE 22:40:35 40° ENE
Cosmos 2082 Rocket 3.8 22:37:11 10° NW 22:41:42 24° WSW 22:43:49 20° SW
STARLINK-1073 4.1 22:38:41 10° NW 22:42:47 57° NNE 22:43:37 47° ENE
EO 1 Del DPAF 3.2 22:40:26 10° NNE 22:44:01 78° NE 22:44:01 78° NE
ATLAS 3B R/B 4.3 22:39:18 10° NNW 22:45:05 29° NE 22:50:59 10° E
NOSS 3-4 (A) 4.1 22:45:54 33° ESE 22:45:54 33° ESE 22:51:15 10° NE
NOSS 3-4 (C) 4.2 22:46:01 32° ESE 22:46:01 32° ESE 22:51:20 10° NE
CENTAUR R/B 3.7 22:38:35 10° NNW 22:46:24 55° NE 22:52:28 21° ESE
Cosmos 1025 Rocket 3.6 22:47:51 43° E 22:47:51 43° E 22:51:43 10° NNE
STARLINK-1121 3.9 22:43:40 10° NW 22:47:47 62° NNE 22:48:24 54° ENE
Cosmos 1455 Rocket 2.9 22:44:42 10° N 22:49:03 82° W 22:49:22 75° SSW
Terra 3.3 22:48:09 23° SW 22:49:34 27° W 22:53:38 10° NW
BREEZE-M DEB (TANK) 3.8 22:47:33 27° SW 22:49:53 84° SSE 23:02:59 10° ENE
ISS -1.4 22:47:28 10° W 22:48:30 16° W 22:48:30 16° W
SL-4 R/B 4.0 22:52:55 21° E 22:52:55 21° E 22:54:52 10° ENE
Cosmos 1470 3.0 22:47:28 10° N 22:51:05 60° ENE 22:51:05 60° ENE
STARLINK-1106 3.8 22:48:37 10° NW 22:52:45 66° NNE 22:53:10 61° ENE
Cosmos 1943 Rocket 2.2 22:50:56 40° SW 22:53:02 79° WNW 22:58:39 10° NNE
Cosmos 2369 Rocket 2.1 22:52:24 52° S 22:53:50 77° ESE 22:59:30 10° NNE
SeaSat 1 2.6 22:51:14 10° NNE 22:56:09 70° WNW 22:57:56 39° SW
STARLINK-1112 3.7 22:53:36 10° NW 22:57:45 71° NNE 22:57:57 70° ENE
STARLINK-1128 3.6 22:58:36 10° NW 23:02:45 77° NNE 23:02:45 77° NNE
Cosmos 1726 3.5 23:00:11 10° NNE 23:03:06 30° ENE 23:03:06 30° ENE
Spot 4 3.8 23:04:36 64° SSW 23:05:15 76° WSW 23:10:08 10° NNW
STARLINK-1113 3.6 23:03:34 10° NW 23:07:31 78° NNW 23:07:31 78° NNW
Cosmos 1842 4.3 23:08:00 37° W 23:08:20 37° WNW 23:12:00 10° N
Lacrosse 5 3.7 23:05:08 10° W 23:08:03 18° WSW 23:08:03 18° WSW
STARLINK-1119 3.7 23:08:32 10° NW 23:12:18 72° NW 23:12:18 72° NW
ATLAS 2AS CENTAUR R/B 3.1 23:11:15 42° S 23:13:56 62° ESE 23:21:45 10° NE
Cosmos 1417 Rocket 4.4 23:08:27 10° N 23:14:48 86° W 23:16:34 51° S
Cosmos 1536 Rocket 3.5 23:14:55 76° ENE 23:14:55 76° ENE 23:19:10 10° NNE
Cosmos 1242 Rocket 3.3 23:15:39 48° NW 23:15:39 48° NW 23:18:55 10° N
Cosmos 968 Rocket 3.3 23:11:45 10° NNW 23:16:57 82° ENE 23:17:39 66° SE
Cosmos 1503 Rocket 4.3 23:12:24 10° NNW 23:17:40 61° ENE 23:18:46 50° ESE
STARLINK-1114 3.8 23:13:31 10° WNW 23:17:05 64° WNW 23:17:05 64° WNW
Meteor 2-8 Rocket 4.4 23:12:58 10° N 23:19:08 83° E 23:20:41 53° SSE
NOSS 3-2 (A) 4.1 23:13:48 10° NW 23:21:24 71° WSW 23:24:27 43° SSE
ALOS 2 2.5 23:21:50 81° E 23:21:55 81° ENE 23:26:20 10° N
STARLINK-1130 (DARKSAT) 4.0 23:18:32 10° WNW 23:21:53 56° WNW 23:21:53 56° WNW
Cosmos 2292 Rocket 3.9 23:25:41 49° ENE 23:25:41 49° ENE 23:28:39 10° NNE
Cosmos 1544 Rocket 4.1 23:21:04 10° NNW 23:25:12 45° W 23:25:14 45° W
ATLAS CENTAUR R/B 2.8 23:27:38 28° E 23:27:38 28° E 23:30:09 10° NE
STARLINK-1084 4.2 23:23:29 10° WNW 23:26:38 49° WNW 23:26:38 49° WNW
Cosmos 2315 Rocket 4.5 23:22:48 10° N 23:28:48 49° ENE 23:30:38 38° ESE
USA 238 DEB 3.9 23:23:27 10° NW 23:30:34 62° WSW 23:32:36 46° S
USA 238 3.9 23:23:32 10° NW 23:30:41 62° WSW 23:32:44 46° S
Cosmos 1656 Rocket 3.6 23:30:19 63° S 23:31:12 78° ESE 23:36:48 10° NNE
STARLINK-1098 4.4 23:28:28 10° WNW 23:31:25 43° WNW 23:31:25 43° WNW
Cosmos 2263 4.3 23:32:55 48° SW 23:34:27 72° WNW 23:40:05 10° NNE
Cosmos 1354 Rocket 4.0 23:29:10 10° NNW 23:34:29 75° ENE 23:35:20 61° SE
Meteor 2-10 3.7 23:31:38 10° NNW 23:36:42 83° W 23:37:10 73° SSW
Cosmos 1486 Rocket 4.4 23:34:48 10° NNW 23:39:54 49° WSW 23:40:19 48° WSW
Cosmos 1867 3.9 23:35:34 10° NNW 23:41:00 62° NE 23:42:36 43° ESE
Cosmos 1271 Rocket 3.8 23:42:16 36° WNW 23:42:16 36° WNW 23:45:48 10° N
Aureole 3 4.3 23:39:06 10° N 23:41:25 36° NNE 23:41:25 36° NNE
In-Cosmos 22 3.9 23:41:55 68° S 23:42:35 84° E 23:47:54 10° NNE
S3M 4.1 23:37:16 10° NNW 23:43:22 65° W 23:44:50 50° SSW
SL-8 R/B 4.1 23:40:09 10° WNW 23:43:56 50° W 23:43:56 50° W
Cosmos 1707 3.9 23:50:53 35° WNW 23:50:53 35° WNW 23:54:20 10° N
Cosmos 1833 4.1 23:45:09 10° NNW 23:50:47 75° WSW 23:51:34 64° S
Cosmos 1655 Rocket 4.3 23:49:21 42° SW 23:51:13 59° WNW 23:57:24 10° N
Cosmos 1606 Rocket 3.9 23:47:32 10° N 23:51:47 53° E 23:51:47 53° E
